Regional Weather Roundup
Issued by NWS Newport/Morehead, NC

Current Version | Previous Version | Text Only | Print | Product List | Glossary On
Versions: 1 2 3 4 5 6 7 8 9 10 11 12 13 14 15 16 17 18 19 20 21 22 23 24 25 26 27 28 29 30 31 32 33 34 35 36 37 38 39 40 41 42 43 44 45 46 47 48 49 50
000 ASUS42 KMHX 281424 RWRMHX WEATHER ROUNDUP FOR EASTERN NORTH CAROLINA NATIONAL WEATHER SERVICE NEWPORT/MOREHEAD CITY NC 1000 AM EDT SAT MAR 28 2015 NOTE: "FAIR" INDICATES FEW OR NO CLOUDS BELOW 12,000 FEET WITH NO SIGNIFICANT WEATHER AND/OR OBSTRUCTIONS TO VISIBILITY NCZ015>017-031-032-045>047-102-103-281500- NORTH COAST CITY SKY/WX TMP DP RH WIND PRES REMARKS EDENTON CLOUDY 40 31 68 N10 29.98R ELIZABETH CITY CLOUDY 41 29 62 NW16 29.96R KITTY HAWK MOSUNNY 43 29 58 N9G22 29.93R MANTEO CLOUDY 43 31 62 NW13 29.96R $$ NCZ045>047-081-094-103-104-281500- CENTRAL COAST CITY SKY/WX TMP DP RH WIND PRES REMARKS FRISCO MOSUNNY 45 32 60 N9G18 29.94R SWANQUARTER N/A 45 N/A N/A NW13 29.94R $$ NCZ095-097-098-100-101-281500- SOUTHERN COAST CITY SKY/WX TMP DP RH WIND PRES REMARKS BEAUFORT PTSUNNY 46 38 73 N15G22 29.98R CEDAR ISLAND N/A 45 N/A N/A W18 30.00S JACKSONVILLE MOSUNNY 43 35 73 N9 30.00S PINEY ISLAND PTSUNNY N/A N/A N/A NW16G22 29.97R WILMINGTON PTSUNNY 46 36 68 N17G23 30.01R $$ NCZ011>013-027>030-043-044-078>080-089-090>093-098-281500- COASTAL PLAIN CITY SKY/WX TMP DP RH WIND PRES REMARKS AHOSKIE MIX PCPN 35 32 89 NW3 30.01R CLINTON MOSUNNY 44 30 58 N6 30.03R ELIZABETHTOWN CLOUDY 44 32 63 N5 30.03R GOLDSBORO PTSUNNY 41 36 81 N13 30.00R GREENVILLE RAIN 37 34 87 NW6 30.03R HAVELOCK CLOUDY 44 33 65 NW16 30.00R KENANSVILLE PTSUNNY 44 33 64 NW6 30.02R KINSTON PTSUNNY 41 36 81 NW8 30.01R NEW BERN CLOUDY 43 34 70 NW10 30.01R RICHLANDS MOSUNNY 43 34 70 N8 30.02R ROCKY MOUNT CLOUDY 39 27 62 NW16G25 30.02R WASHINGTON PTSUNNY 40 33 76 NW8 30.00R WHITEVILLE PTSUNNY 45 29 55 CALM 30.03R $$ AMZ130-135-150-152-154-156-158-170-250-252-270-ANZ085-086-088-633-658-670-281500- MARINE OBSERVATIONS STATION/POSITION TIME TEMP WIND PRES WAVE SWELL AIR SEA DIR/SP/G HT/PER HT/PER (UTC) (F) (DEG/KT/KT) (MB) (FT/S) (FT/S) CHESAPEAKE LIGHT 1400 38 330/ 25/ 27 1014.5 64 E VA BEACH 1350 42 56 340/ 25/ 31 1011.4 9/ 8 DUCK 1400 40 41 330/ 19/ 24 1012.9 2 E DUCK 1311 41 N/A 6/ 7 2/11 10 NE DUCK NOT AVBL OREGON INLET 1400 42 44 340/ 13/ 19 1014.0 HATTERAS CG 1400 44 53 330/ 15/ 17 1014.3 CAPE LOOKOUT 1400 44 340/ 14/ 15 1015.1 BEAUFORT LAB 1400 45 55 350/ 12/ 16 1014.5 27 SE WRIGHTSVLE 1400 44 64 360/ 16/ 21 1017.0 5 SE WRIGHTSVLE 1400 45 56 20/ 14/ 17 1016.0 225 S CAPE HAT 1350 62 68 290/ 27/ 33 1013.2 14/ 9 41 SE CHARLESTON 1350 51 68 310/ 16/ 19 1016.5 5/ 7 2/ 8 $$

USA.gov is the U.S. government's official web portal to all federal, state and local government web resources and services.